,,,PA_Meas_PMT16A,,PR_Meas_QMR101_102,,RH_Meas_QMH101,,SR_Meas_QMS101,,TA_Meas_QMH101,,GenWind,,GenWind,
date,time,status,PA,status,PR,status,RH,status,SR,status,TA,status,DirAvg,status,SpdAvg,
2008-05-14, 00:00:04,VALID,1005.7,VALID,0,VALID,92.5993,VALID,0,VALID,24.3654,VALID,344,VALID,0.566406,
2008-05-14, 00:01:04,VALID,1005.69,VALID,0,VALID,92.4925,VALID,0,VALID,24.3654,VALID,356,VALID,0.924609,
2008-05-14, 00:02:04,VALID,1005.69,VALID,0,VALID,92.3857,VALID,0,VALID,24.4062,VALID,354,VALID,0.957422,
2008-05-14, 00:03:04,VALID,1005.67,VALID,0,VALID,92.2561,VALID,0,VALID,24.3849,VALID,357,VALID,0.610547,
2008-05-14, 00:04:04,VALID,1005.65,VALID,0,VALID,92.1569,VALID,0,VALID,24.4257,VALID,353,VALID,0.648047,
2008-05-14, 00:05:04,VALID,1005.64,VALID,0,VALID,92.0501,VALID,0,VALID,24.4257,VALID,357,VALID,0.725781,
2008-05-14, 00:06:04,VALID,1005.62,VALID,0,VALID,91.9662,VALID,0,VALID,24.4257,VALID,356,VALID,0.512109,
2008-05-14, 00:07:04,VALID,1005.6,VALID,0,VALID,91.9204,VALID,0,VALID,24.4043,VALID,5,VALID,0.859375,
2008-05-14, 00:08:04,VALID,1005.58,VALID,0,VALID,91.8899,VALID,0,VALID,24.4257,VALID,4,VALID,0.525781,
2008-05-14, 00:09:04,VALID,1005.57,VALID,0,VALID,91.9356,VALID,0,VALID,24.3849,VALID,4,VALID,0.419141,
2008-05-14, 00:10:04,VALID,1005.56,VALID,0,VALID,91.9967,VALID,0,VALID,24.3459,VALID,4,VALID,0.437891,
2008-05-14, 00:11:04,VALID,1005.58,VALID,0,VALID,92.1035,VALID,0,VALID,24.3283,VALID,4,VALID,0.224219,
2008-05-14, 00:12:04,VALID,1005.57,VALID,0,VALID,92.2332,VALID,0.100563,VALID,24.2894,VALID,4,VALID,0.4375,
2008-05-14, 00:13:04,VALID,1005.59,VALID,0,VALID,92.3629,VALID,0,VALID,24.2504,VALID,4,VALID,0.339844,
2008-05-14, 00:14:04,VALID,1005.57,VALID,0,VALID,92.546,VALID,0.100563,VALID,24.2115,VALID,4,VALID,0.287109,
2008-05-14, 00:15:04,VALID,1005.59,VALID,0,VALID,92.7519,VALID,0,VALID,24.2115,VALID,4,VALID,0.337109,
2008-05-14, 00:16:04,VALID,1005.52,VALID,0,VALID,92.935,VALID,0,VALID,24.1726,VALID,351,VALID,0.249609,
2008-05-14, 00:17:04,VALID,1005.53,VALID,0,VALID,92.935,VALID,0,VALID,24.1513,VALID,351,VALID,0.137891,
2008-05-14, 00:18:04,VALID,1005.53,VALID,0,VALID,93.0189,VALID,0,VALID,24.1531,VALID,351,VALID,0.155078,
2008-05-14, 00:19:04,VALID,1005.5,VALID,0,VALID,93.0952,VALID,0,VALID,24.1142,VALID,351,VALID,0.294922,
2008-05-14, 00:20:04,VALID,1005.5,VALID,0,VALID,93.2097,VALID,0,VALID,24.0947,VALID,351,VALID,0.383594,
2008-05-14, 00:21:04,VALID,1005.53,VALID,0,VALID,93.2173,VALID,0.100563,VALID,24.0539,VALID,351,VALID,0.212891,
2008-05-14, 00:22:04,VALID,1005.52,VALID,0,VALID,93.2707,VALID,0,VALID,24.015,VALID,351,VALID,0.0734375,
2008-05-14, 00:23:04,VALID,1005.48,VALID,0,VALID,93.3394,VALID,0,VALID,23.9761,VALID,351,VALID,0,
2008-05-14, 00:24:04,VALID,1005.48,VALID,0,VALID,93.5224,VALID,0,VALID,23.9761,VALID,351,VALID,0.346094,
2008-05-14, 00:25:04,VALID,1005.48,VALID,0,VALID,93.6826,VALID,0,VALID,23.9779,VALID,183,VALID,0.990234,
2008-05-14, 00:26:04,VALID,1005.46,VALID,0,VALID,93.7895,VALID,0,VALID,23.9973,VALID,177,VALID,0.828516,
2008-05-14, 00:27:04,VALID,1005.47,VALID,0,VALID,93.7132,VALID,0,VALID,24.0168,VALID,190,VALID,0.732813,
2008-05-14, 00:28:04,VALID,1005.44,VALID,0,VALID,93.7055,VALID,0,VALID,23.9955,VALID,199,VALID,0.442187,
2008-05-14, 00:29:04,VALID,1005.45,VALID,0,VALID,93.6064,VALID,0,VALID,23.9973,VALID,199,VALID,0.185547,
2008-05-14, 00:30:04,VALID,1005.44,VALID,0,VALID,93.614,VALID,0,VALID,23.9779,VALID,199,VALID,0.10625,
2008-05-14, 00:31:04,VALID,1005.43,VALID,0,VALID,93.6598,VALID,0,VALID,23.9566,VALID,199,VALID,0.299219,
2008-05-14, 00:32:04,VALID,1005.41,VALID,0,VALID,93.6521,VALID,0,VALID,23.9566,VALID,199,VALID,0,
2008-05-14, 00:33:04,VALID,1005.41,VALID,0,VALID,93.6292,VALID,0,VALID,23.9389,VALID,199,VALID,0,
2008-05-14, 00:34:04,VALID,1005.38,VALID,0,VALID,93.6674,VALID,0,VALID,23.8982,VALID,199,VALID,0,
2008-05-14, 00:35:04,VALID,1005.36,VALID,0,VALID,93.6521,VALID,0,VALID,23.8805,VALID,199,VALID,0,
2008-05-14, 00:36:04,VALID,1005.36,VALID,0,VALID,93.6445,VALID,0,VALID,23.8203,VALID,199,VALID,0,
2008-05-14, 00:37:04,VALID,1005.33,VALID,0,VALID,93.7437,VALID,0,VALID,23.8416,VALID,199,VALID,0,
2008-05-14, 00:38:04,VALID,1005.31,VALID,0,VALID,93.8657,VALID,0,VALID,23.8027,VALID,199,VALID,0,
2008-05-14, 00:39:04,VALID,1005.29,VALID,0,VALID,93.9268,VALID,0,VALID,23.8027,VALID,199,VALID,0,
2008-05-14, 00:40:04,VALID,1005.25,VALID,0,VALID,93.9344,VALID,0.100563,VALID,23.7619,VALID,199,VALID,0,
2008-05-14, 00:41:04,VALID,1005.23,VALID,0,VALID,93.9649,VALID,0.100563,VALID,23.7637,VALID,199,VALID,0.373047,
2008-05-14, 00:42:04,VALID,1005.23,VALID,0,VALID,94.0183,VALID,0,VALID,23.7248,VALID,199,VALID,0.3875,
2008-05-14, 00:43:04,VALID,1005.17,VALID,0,VALID,94.0565,VALID,0,VALID,23.6646,VALID,199,VALID,0.416406,
2008-05-14, 00:44:04,VALID,1005.16,VALID,0,VALID,94.2472,VALID,0,VALID,23.6664,VALID,214,VALID,0.453516,
2008-05-14, 00:45:04,VALID,1005.14,VALID,0,VALID,94.3082,VALID,0,VALID,23.6275,VALID,342,VALID,0.582422,
2008-05-14, 00:46:04,VALID,1005.12,VALID,0,VALID,94.354,VALID,0.100563,VALID,23.5868,VALID,344,VALID,0.748438,
2008-05-14, 00:47:04,VALID,1005.1,VALID,0,VALID,94.4074,VALID,0,VALID,23.5885,VALID,351,VALID,0.746484,
2008-05-14, 00:48:04,VALID,1005.12,VALID,0,VALID,94.4913,VALID,0,VALID,23.5284,VALID,360,VALID,1.05625,
2008-05-14, 00:49:04,VALID,1005.1,VALID,0,VALID,94.5752,VALID,0,VALID,23.5302,VALID,3,VALID,0.739062,
2008-05-14, 00:50:04,VALID,1005.06,VALID,0,VALID,94.6286,VALID,0,VALID,23.4912,VALID,3,VALID,0.682813,
2008-05-14, 00:51:04,VALID,1005.03,VALID,0,VALID,94.8956,VALID,0,VALID,23.4894,VALID,2,VALID,0.426172,
2008-05-14, 00:52:04,VALID,1005,VALID,0,VALID,94.9262,VALID,0.100563,VALID,23.5107,VALID,353,VALID,0.386719,
2008-05-14, 00:53:04,VALID,1004.98,VALID,0,VALID,94.9414,VALID,0,VALID,23.4894,VALID,354,VALID,0.530859,
2008-05-14, 00:54:04,VALID,1004.96,VALID,0,VALID,95.0253,VALID,0.100563,VALID,23.5107,VALID,350,VALID,0.644141,
2008-05-14, 00:55:04,VALID,1004.91,VALID,0,VALID,95.0101,VALID,0,VALID,23.4894,VALID,350,VALID,0.551562,
2008-05-14, 00:56:04,VALID,1004.9,VALID,0,VALID,94.9948,VALID,0,VALID,23.4894,VALID,350,VALID,0.600781,
2008-05-14, 00:57:04,VALID,1004.91,VALID,0,VALID,94.9948,VALID,0,VALID,23.4912,VALID,350,VALID,0.561719,
2008-05-14, 00:58:04,VALID,1004.89,VALID,0,VALID,95.0482,VALID,0,VALID,23.4505,VALID,351,VALID,0.542969,
2008-05-14, 00:59:04,VALID,1004.87,VALID,0,VALID,95.094,VALID,0,VALID,23.4505,VALID,351,VALID,0.430078,
2008-05-14, 01:00:04,VALID,1004.85,VALID,0,VALID,95.1398,VALID,0,VALID,23.4718,VALID,351,VALID,0.319141,
2008-05-14, 01:01:04,VALID,1004.84,VALID,0,VALID,95.1474,VALID,0,VALID,23.4505,VALID,351,VALID,0.425781,
2008-05-14, 01:02:04,VALID,1004.81,VALID,0,VALID,95.2161,VALID,0,VALID,23.493,VALID,351,VALID,0.594531,
2008-05-14, 01:03:04,VALID,1004.79,VALID,0,VALID,95.2695,VALID,0,VALID,23.47,VALID,351,VALID,0.416406,
2008-05-14, 01:04:04,VALID,1004.76,VALID,0,VALID,95.2923,VALID,0,VALID,23.5107,VALID,351,VALID,0.412891,
2008-05-14, 01:05:04,VALID,1004.74,VALID,0,VALID,95.2161,VALID,0.100563,VALID,23.4894,VALID,351,VALID,0.506641,
2008-05-14, 01:06:04,VALID,1004.72,VALID,0,VALID,95.1474,VALID,0,VALID,23.4912,VALID,351,VALID,0.558594,
2008-05-14, 01:07:04,VALID,1004.69,VALID,0,VALID,95.0787,VALID,0,VALID,23.4718,VALID,351,VALID,0.466406,
2008-05-14, 01:08:04,VALID,1004.65,VALID,0,VALID,95.0711,VALID,0.100563,VALID,23.4116,VALID,351,VALID,0.471875,
2008-05-14, 01:09:04,VALID,1004.66,VALID,0,VALID,95.0558,VALID,0,VALID,23.3921,VALID,351,VALID,0.385938,
2008-05-14, 01:10:04,VALID,1004.62,VALID,0,VALID,95.2084,VALID,0,VALID,23.3921,VALID,351,VALID,0.358594,
2008-05-14, 01:11:04,VALID,1004.63,VALID,0,VALID,95.2237,VALID,0.100563,VALID,23.3727,VALID,351,VALID,0.626172,
2008-05-14, 01:12:04,VALID,1004.6,VALID,0,VALID,95.3686,VALID,0,VALID,23.3921,VALID,351,VALID,0.75,
2008-05-14, 01:13:04,VALID,1004.57,VALID,0,VALID,95.2847,VALID,0,VALID,23.4134,VALID,351,VALID,0.461328,
2008-05-14, 01:14:04,VALID,1004.56,VALID,0,VALID,95.1932,VALID,0,VALID,23.3939,VALID,351,VALID,0.437109,
2008-05-14, 01:15:04,VALID,1004.54,VALID,0,VALID,95.155,VALID,0,VALID,23.3337,VALID,351,VALID,0.340234,
2008-05-14, 01:16:04,VALID,1004.54,VALID,0,VALID,95.1321,VALID,0,VALID,23.316,VALID,351,VALID,0.197656,
2008-05-14, 01:17:04,VALID,1004.55,VALID,0,VALID,95.1932,VALID,0,VALID,23.316,VALID,352,VALID,0,
2008-05-14, 01:18:04,VALID,1004.52,VALID,0,VALID,95.2084,VALID,0,VALID,23.2559,VALID,351,VALID,0,
2008-05-14, 01:19:04,VALID,1004.5,VALID,0,VALID,95.2313,VALID,0,VALID,23.2559,VALID,351,VALID,0,
2008-05-14, 01:20:04,VALID,1004.54,VALID,0,VALID,95.2313,VALID,0,VALID,23.2577,VALID,351,VALID,0,
2008-05-14, 01:21:04,VALID,1004.52,VALID,0,VALID,95.3076,VALID,0,VALID,23.2382,VALID,351,VALID,0,
2008-05-14, 01:22:04,VALID,1004.52,VALID,0,VALID,95.3305,VALID,0,VALID,23.2187,VALID,351,VALID,0,
2008-05-14, 01:23:04,VALID,1004.51,VALID,0,VALID,95.3686,VALID,0,VALID,23.2187,VALID,351,VALID,0,
2008-05-14, 01:24:04,VALID,1004.48,VALID,0,VALID,95.4068,VALID,0,VALID,23.2187,VALID,351,VALID,0,
2008-05-14, 01:25:04,VALID,1004.47,VALID,0,VALID,95.4373,VALID,0,VALID,23.1975,VALID,351,VALID,0,
2008-05-14, 01:26:04,VALID,1004.49,VALID,0,VALID,95.5594,VALID,0,VALID,23.217,VALID,352,VALID,0,
2008-05-14, 01:27:04,VALID,1004.44,VALID,0,VALID,95.4907,VALID,0,VALID,23.2382,VALID,352,VALID,0,
2008-05-14, 01:28:04,VALID,1004.41,VALID,0,VALID,95.4373,VALID,0,VALID,23.2187,VALID,352,VALID,0,
2008-05-14, 01:29:04,VALID,1004.41,VALID,0,VALID,95.3686,VALID,0,VALID,23.1993,VALID,352,VALID,0.241406,
2008-05-14, 01:30:04,VALID,1004.38,VALID,0,VALID,95.3381,VALID,0,VALID,23.1391,VALID,352,VALID,0.244922,
2008-05-14, 01:31:04,VALID,1004.36,VALID,0,VALID,95.3305,VALID,0,VALID,23.1409,VALID,352,VALID,0.510938,
2008-05-14, 01:32:04,VALID,1004.35,VALID,0,VALID,95.2923,VALID,0,VALID,23.1019,VALID,352,VALID,0.46875,
2008-05-14, 01:33:04,VALID,1004.34,VALID,0,VALID,95.2542,VALID,0,VALID,23.0418,VALID,352,VALID,0.5375,
2008-05-14, 01:34:04,VALID,1004.31,VALID,0,VALID,95.2618,VALID,0,VALID,23.0241,VALID,353,VALID,0.514063,
2008-05-14, 01:35:04,VALID,1004.29,VALID,0,VALID,95.3534,VALID,0,VALID,22.9834,VALID,353,VALID,0.515234,
2008-05-14, 01:36:04,VALID,1004.32,VALID,0,VALID,95.6814,VALID,0,VALID,23.0241,VALID,353,VALID,0.486719,
2008-05-14, 01:37:04,VALID,1004.28,VALID,0,VALID,95.8187,VALID,0,VALID,23.0613,VALID,353,VALID,0.600391,
2008-05-14, 01:38:04,VALID,1004.28,VALID,0,VALID,95.7196,VALID,0,VALID,23.1002,VALID,353,VALID,0.484766,
2008-05-14, 01:39:04,VALID,1004.27,VALID,0,VALID,95.6967,VALID,0,VALID,23.0613,VALID,353,VALID,0.469531,
2008-05-14, 01:40:04,VALID,1004.26,VALID,0,VALID,95.7196,VALID,0,VALID,23.1019,VALID,353,VALID,0.577734,
2008-05-14, 01:41:04,VALID,1004.25,VALID,0,VALID,95.7196,VALID,0,VALID,23.0807,VALID,353,VALID,0.357812,
2008-05-14, 01:42:04,VALID,1004.22,VALID,0,VALID,95.6433,VALID,0,VALID,23.0613,VALID,353,VALID,0.401953,
2008-05-14, 01:43:04,VALID,1004.2,VALID,0,VALID,95.6051,VALID,0.100563,VALID,23.0613,VALID,353,VALID,0.471094,
2008-05-14, 01:44:04,VALID,1004.24,VALID,0,VALID,95.6051,VALID,0,VALID,23.0436,VALID,353,VALID,0.563281,
2008-05-14, 01:45:04,VALID,1004.24,VALID,0,VALID,95.628,VALID,0,VALID,23.0436,VALID,354,VALID,0.512109,
2008-05-14, 01:46:04,VALID,1004.22,VALID,0,VALID,95.6967,VALID,0,VALID,23.0029,VALID,354,VALID,0.512891,
2008-05-14, 01:47:04,VALID,1004.22,VALID,0,VALID,95.7424,VALID,0,VALID,23.0029,VALID,354,VALID,0.402734,
2008-05-14, 01:48:04,VALID,1004.2,VALID,0,VALID,95.7272,VALID,0,VALID,23.0418,VALID,354,VALID,0.488281,
2008-05-14, 01:49:04,VALID,1004.17,VALID,0,VALID,95.8035,VALID,0,VALID,23.0029,VALID,354,VALID,0.379687,
2008-05-14, 01:50:04,VALID,1004.19,VALID,0,VALID,95.8645,VALID,0,VALID,23.0436,VALID,354,VALID,0.269141,
2008-05-14, 01:51:04,VALID,1004.15,VALID,0,VALID,95.9332,VALID,0,VALID,23.0613,VALID,354,VALID,0.223828,
2008-05-14, 01:52:04,VALID,1004.14,VALID,0,VALID,95.9866,VALID,0,VALID,23.1019,VALID,354,VALID,0.206641,
2008-05-14, 01:53:04,VALID,1004.15,VALID,0,VALID,95.9255,VALID,0,VALID,23.1214,VALID,354,VALID,0.202344,
2008-05-14, 01:54:04,VALID,1004.16,VALID,0,VALID,95.8416,VALID,0,VALID,23.0613,VALID,354,VALID,0.324609,
2008-05-14, 01:55:04,VALID,1004.2,VALID,0,VALID,95.8035,VALID,0,VALID,23.0418,VALID,354,VALID,0.555859,
2008-05-14, 01:56:04,VALID,1004.19,VALID,0,VALID,95.7882,VALID,0,VALID,23.0418,VALID,354,VALID,0.482422,
2008-05-14, 01:57:04,VALID,1004.22,VALID,0,VALID,95.8645,VALID,0.100563,VALID,23.0613,VALID,354,VALID,0.403125,
2008-05-14, 01:58:04,VALID,1004.18,VALID,0,VALID,96.0018,VALID,0.100563,VALID,23.0595,VALID,354,VALID,0.3375,
2008-05-14, 01:59:04,VALID,1004.19,VALID,0,VALID,95.9408,VALID,0,VALID,23.0825,VALID,354,VALID,0.332812,
2008-05-14, 02:00:04,VALID,1004.18,VALID,0,VALID,95.8264,VALID,0.100563,VALID,23.063,VALID,354,VALID,0.383203,
2008-05-14, 02:01:04,VALID,1004.17,VALID,0,VALID,95.8493,VALID,0.100563,VALID,23.0224,VALID,354,VALID,0.432422,
2008-05-14, 02:02:04,VALID,1004.16,VALID,0,VALID,95.895,VALID,0.100563,VALID,23.0224,VALID,354,VALID,0.543359,
2008-05-14, 02:03:04,VALID,1004.15,VALID,0,VALID,95.8569,VALID,0.100563,VALID,23.0224,VALID,354,VALID,0.498047,
2008-05-14, 02:04:04,VALID,1004.14,VALID,0,VALID,95.8493,VALID,0.100563,VALID,23.0029,VALID,354,VALID,0.475391,
2008-05-14, 02:05:04,VALID,1004.17,VALID,0,VALID,95.834,VALID,0.100563,VALID,22.9834,VALID,354,VALID,0.445703,
2008-05-14, 02:06:04,VALID,1004.18,VALID,0,VALID,95.8569,VALID,0.100563,VALID,22.9852,VALID,354,VALID,0.353516,
2008-05-14, 02:07:04,VALID,1004.18,VALID,0,VALID,95.9332,VALID,0.100563,VALID,22.9852,VALID,354,VALID,0.316016,
2008-05-14, 02:08:04,VALID,1004.21,VALID,0,VALID,95.9408,VALID,0,VALID,22.964,VALID,354,VALID,0.0351563,
2008-05-14, 02:09:04,VALID,1004.21,VALID,0,VALID,96.0018,VALID,0,VALID,22.9834,VALID,354,VALID,0,
2008-05-14, 02:10:04,VALID,1004.2,VALID,0,VALID,95.9942,VALID,0.100563,VALID,22.9834,VALID,354,VALID,0,
2008-05-14, 02:11:04,VALID,1004.23,VALID,0,VALID,95.9713,VALID,0,VALID,23.0046,VALID,354,VALID,0,
2008-05-14, 02:12:04,VALID,1004.23,VALID,0,VALID,95.9561,VALID,0,VALID,22.9852,VALID,354,VALID,0,
2008-05-14, 02:13:04,VALID,1004.23,VALID,0,VALID,95.9408,VALID,0,VALID,23.0064,VALID,354,VALID,0,
2008-05-14, 02:14:04,VALID,1004.26,VALID,0,VALID,95.9103,VALID,0,VALID,22.9852,VALID,354,VALID,0,
2008-05-14, 02:15:04,VALID,1004.26,VALID,0,VALID,95.9332,VALID,0,VALID,22.9657,VALID,354,VALID,0,
2008-05-14, 02:16:04,VALID,1004.28,VALID,0,VALID,95.9561,VALID,0,VALID,22.9869,VALID,354,VALID,0.441406,
2008-05-14, 02:17:04,VALID,1004.29,VALID,0,VALID,95.9866,VALID,0,VALID,22.964,VALID,357,VALID,0.674219,
2008-05-14, 02:18:04,VALID,1004.31,VALID,0,VALID,95.8569,VALID,0,VALID,22.948,VALID,12,VALID,0.576563,
2008-05-14, 02:19:04,VALID,1004.28,VALID,0,VALID,95.8264,VALID,0,VALID,22.8879,VALID,12,VALID,0.602344,
2008-05-14, 02:20:04,VALID,1004.27,VALID,0,VALID,95.834,VALID,0,VALID,22.8489,VALID,12,VALID,0.504687,
2008-05-14, 02:21:04,VALID,1004.26,VALID,0,VALID,95.8645,VALID,0,VALID,22.8295,VALID,12,VALID,0.465234,
2008-05-14, 02:22:04,VALID,1004.26,VALID,0,VALID,96.0552,VALID,0,VALID,22.8295,VALID,12,VALID,0.305469,
2008-05-14, 02:23:04,VALID,1004.25,VALID,0,VALID,96.2231,VALID,0,VALID,22.8879,VALID,11,VALID,0.358984,
2008-05-14, 02:24:04,VALID,1004.2,VALID,0,VALID,96.3299,VALID,0,VALID,22.9852,VALID,360,VALID,0.646484,
2008-05-14, 02:25:04,VALID,1004.23,VALID,0,VALID,96.2841,VALID,0,VALID,23.0241,VALID,357,VALID,0.58125,
2008-05-14, 02:26:04,VALID,1004.21,VALID,0,VALID,96.246,VALID,0,VALID,23.0241,VALID,345,VALID,0.605078,
2008-05-14, 02:27:04,VALID,1004.19,VALID,0,VALID,96.2078,VALID,0.100563,VALID,23.0401,VALID,355,VALID,0.507813,
2008-05-14, 02:28:04,VALID,1004.19,VALID,0,VALID,96.2612,VALID,0,VALID,23.0825,VALID,349,VALID,0.666797,
2008-05-14, 02:29:04,VALID,1004.19,VALID,0,VALID,96.307,VALID,0,VALID,23.1214,VALID,343,VALID,0.639453,
2008-05-14, 02:30:04,VALID,1004.21,VALID,0,VALID,96.2841,VALID,0.100563,VALID,23.1586,VALID,344,VALID,0.461328,
2008-05-14, 02:31:04,VALID,1004.2,VALID,0,VALID,96.2841,VALID,0.100563,VALID,23.178,VALID,351,VALID,0.503906,
2008-05-14, 02:32:04,VALID,1004.21,VALID,0,VALID,96.3146,VALID,0.100563,VALID,23.2382,VALID,333,VALID,0.30625,
2008-05-14, 02:33:04,VALID,1004.21,VALID,0,VALID,96.2917,VALID,0,VALID,23.2559,VALID,322,VALID,0.1625,
2008-05-14, 02:34:04,VALID,1004.23,VALID,0,VALID,96.2765,VALID,0.100563,VALID,23.2966,VALID,335,VALID,0.264453,
2008-05-14, 02:35:04,VALID,1004.23,VALID,0,VALID,96.246,VALID,0.100563,VALID,23.3143,VALID,337,VALID,0.413672,
2008-05-14, 02:36:04,VALID,1004.2,VALID,0,VALID,96.2002,VALID,0,VALID,23.3337,VALID,336,VALID,0.309766,
2008-05-14, 02:37:04,VALID,1004.17,VALID,0,VALID,96.1544,VALID,0,VALID,23.3727,VALID,341,VALID,0.272266,
2008-05-14, 02:38:04,VALID,1004.2,VALID,0,VALID,96.1468,VALID,0.100563,VALID,23.3921,VALID,334,VALID,0.872656,
2008-05-14, 02:39:04,VALID,1004.18,VALID,0,VALID,96.1315,VALID,0,VALID,23.4505,VALID,337,VALID,0.407422,
2008-05-14, 02:40:04,VALID,1004.14,VALID,0,VALID,96.04,VALID,0,VALID,23.4894,VALID,355,VALID,0.755859,
2008-05-14, 02:41:04,VALID,1004.13,VALID,0,VALID,95.9255,VALID,0.100563,VALID,23.5496,VALID,357,VALID,0.7875,
2008-05-14, 02:42:04,VALID,1004.11,VALID,0,VALID,95.8111,VALID,0,VALID,23.608,VALID,352,VALID,0.852734,
2008-05-14, 02:43:04,VALID,1004.12,VALID,0,VALID,95.6128,VALID,0.100563,VALID,23.6452,VALID,347,VALID,0.916406,
2008-05-14, 02:44:04,VALID,1004.14,VALID,0,VALID,95.4068,VALID,0.100563,VALID,23.6841,VALID,338,VALID,0.539453,
2008-05-14, 02:45:04,VALID,1004.13,VALID,0,VALID,95.2084,VALID,0.100563,VALID,23.7443,VALID,305,VALID,0.383594,
2008-05-14, 02:46:04,VALID,1004.12,VALID,0,VALID,95.0024,VALID,0,VALID,23.7619,VALID,359,VALID,0.940234,
2008-05-14, 02:47:04,VALID,1004.09,VALID,0,VALID,94.7965,VALID,0.100563,VALID,23.8009,VALID,353,VALID,0.851953,
2008-05-14, 02:48:04,VALID,1004.08,VALID,0,VALID,94.5676,VALID,0.100563,VALID,23.8416,VALID,351,VALID,0.594531,
2008-05-14, 02:49:04,VALID,1004.07,VALID,0,VALID,94.3616,VALID,0,VALID,23.8203,VALID,352,VALID,0.672656,
2008-05-14, 02:50:04,VALID,1004.08,VALID,0,VALID,94.209,VALID,0.100563,VALID,23.8805,VALID,355,VALID,0.553516,
2008-05-14, 02:51:04,VALID,1004.07,VALID,0,VALID,94.0565,VALID,0.100563,VALID,23.9,VALID,350,VALID,0.849609,
2008-05-14, 02:52:04,VALID,1004.07,VALID,0,VALID,93.9191,VALID,0,VALID,23.8787,VALID,349,VALID,0.848437,
2008-05-14, 02:53:04,VALID,1004.09,VALID,0,VALID,93.82,VALID,0.100563,VALID,23.8982,VALID,351,VALID,0.842969,
2008-05-14, 02:54:04,VALID,1004.07,VALID,0,VALID,93.7589,VALID,0.100563,VALID,23.9177,VALID,345,VALID,0.803906,
2008-05-14, 02:55:04,VALID,1004.1,VALID,0,VALID,93.7055,VALID,0.100563,VALID,23.9389,VALID,354,VALID,0.76875,
2008-05-14, 02:56:04,VALID,1004.08,VALID,0,VALID,93.6521,VALID,0,VALID,23.9177,VALID,348,VALID,0.784766,
2008-05-14, 02:57:04,VALID,1004.09,VALID,0,VALID,93.5606,VALID,0,VALID,23.9177,VALID,357,VALID,0.895312,
2008-05-14, 02:58:04,VALID,1004.1,VALID,0,VALID,93.469,VALID,0.100563,VALID,23.9566,VALID,349,VALID,0.635547,
2008-05-14, 02:59:04,VALID,1004.13,VALID,0,VALID,93.3928,VALID,0.100563,VALID,23.9973,VALID,352,VALID,0.667188,
2008-05-14, 03:00:04,VALID,1004.14,VALID,0,VALID,93.2707,VALID,0,VALID,23.9973,VALID,311,VALID,0.507422,
2008-05-14, 03:01:04,VALID,1004.13,VALID,0,VALID,93.1715,VALID,0,VALID,23.9955,VALID,317,VALID,0.260938,
2008-05-14, 03:02:04,VALID,1004.15,VALID,0,VALID,93.1257,VALID,0.100563,VALID,23.9955,VALID,319,VALID,0.371875,
2008-05-14, 03:03:04,VALID,1004.18,VALID,0,VALID,93.0876,VALID,0,VALID,23.9973,VALID,321,VALID,0.179688,
2008-05-14, 03:04:04,VALID,1004.19,VALID,0,VALID,93.1868,VALID,0,VALID,23.9566,VALID,355,VALID,0.612109,
2008-05-14, 03:05:04,VALID,1004.19,VALID,0,VALID,93.1868,VALID,0,VALID,23.9779,VALID,347,VALID,0.437109,
2008-05-14, 03:06:04,VALID,1004.18,VALID,0,VALID,93.141,VALID,0,VALID,23.9779,VALID,342,VALID,0.021875,
2008-05-14, 03:07:04,VALID,1004.21,VALID,0,VALID,93.0876,VALID,0,VALID,23.9584,VALID,342,VALID,0.451172,
2008-05-14, 03:08:04,VALID,1004.2,VALID,0,VALID,93.1486,VALID,0,VALID,23.9195,VALID,352,VALID,0.569141,
2008-05-14, 03:09:04,VALID,1004.21,VALID,0,VALID,93.141,VALID,0,VALID,23.9195,VALID,350,VALID,0.504687,
2008-05-14, 03:10:04,VALID,1004.19,VALID,0,VALID,93.1944,VALID,0,VALID,23.9018,VALID,349,VALID,0.0195313,
2008-05-14, 03:11:04,VALID,1004.2,VALID,0,VALID,93.2325,VALID,0,VALID,23.8611,VALID,349,VALID,0.380078,
2008-05-14, 03:12:04,VALID,1004.19,VALID,0,VALID,93.2859,VALID,0,VALID,23.8221,VALID,323,VALID,0.480469,
2008-05-14, 03:13:04,VALID,1004.22,VALID,0,VALID,93.3546,VALID,0,VALID,23.8027,VALID,323,VALID,0.0644531,
2008-05-14, 03:14:04,VALID,1004.22,VALID,0,VALID,93.3699,VALID,0,VALID,23.7637,VALID,323,VALID,0,
2008-05-14, 03:15:04,VALID,1004.23,VALID,0,VALID,93.5148,VALID,0,VALID,23.7637,VALID,323,VALID,0.0195313,
2008-05-14, 03:16:04,VALID,1004.21,VALID,0,VALID,93.7055,VALID,0,VALID,23.7637,VALID,319,VALID,0.0867188,
2008-05-14, 03:17:04,VALID,1004.2,VALID,0,VALID,93.675,VALID,0,VALID,23.7443,VALID,319,VALID,0.053125,
2008-05-14, 03:18:04,VALID,1004.23,VALID,0,VALID,93.7208,VALID,0.100563,VALID,23.7248,VALID,319,VALID,0,
2008-05-14, 03:19:04,VALID,1004.19,VALID,0,VALID,93.7742,VALID,0,VALID,23.7248,VALID,315,VALID,0.175781,
2008-05-14, 03:20:04,VALID,1004.19,VALID,0,VALID,93.881,VALID,0,VALID,23.7443,VALID,313,VALID,0,
2008-05-14, 03:21:04,VALID,1004.18,VALID,0,VALID,93.9802,VALID,0,VALID,23.7443,VALID,313,VALID,0,
2008-05-14, 03:22:04,VALID,1004.16,VALID,0,VALID,94.0717,VALID,0,VALID,23.7655,VALID,1,VALID,0.653516,
2008-05-14, 03:23:04,VALID,1004.21,VALID,0,VALID,94.0259,VALID,0.100563,VALID,23.7619,VALID,358,VALID,0.292188,
2008-05-14, 03:24:04,VALID,1004.17,VALID,0,VALID,94.0488,VALID,0,VALID,23.7619,VALID,358,VALID,0.482812,
2008-05-14, 03:25:04,VALID,1004.13,VALID,0,VALID,94.0107,VALID,0,VALID,23.7814,VALID,355,VALID,0.540625,
2008-05-14, 03:26:04,VALID,1004.12,VALID,0,VALID,93.9344,VALID,0,VALID,23.8027,VALID,350,VALID,0.478125,
2008-05-14, 03:27:04,VALID,1004.1,VALID,0,VALID,93.6521,VALID,0,VALID,23.7832,VALID,350,VALID,0.574219,
2008-05-14, 03:28:04,VALID,1004.12,VALID,0,VALID,93.5911,VALID,0,VALID,23.7443,VALID,350,VALID,0.402734,
2008-05-14, 03:29:04,VALID,1004.08,VALID,0,VALID,93.7361,VALID,0,VALID,23.7248,VALID,349,VALID,0.512891,
2008-05-14, 03:30:04,VALID,1004.1,VALID,0,VALID,93.614,VALID,0,VALID,23.7071,VALID,349,VALID,0.481641,
2008-05-14, 03:31:04,VALID,1004.08,VALID,0,VALID,93.3394,VALID,0,VALID,23.608,VALID,349,VALID,0.196484,
2008-05-14, 03:32:04,VALID,1004.1,VALID,0,VALID,93.469,VALID,0,VALID,23.5302,VALID,350,VALID,0.39375,
2008-05-14, 03:33:04,VALID,1004.08,VALID,0,VALID,93.6064,VALID,0.100563,VALID,23.4912,VALID,351,VALID,0.234375,
2008-05-14, 03:34:04,VALID,1004.14,VALID,0,VALID,93.7666,VALID,0,VALID,23.4523,VALID,351,VALID,0,
2008-05-14, 03:35:04,VALID,1004.12,VALID,0,VALID,93.9954,VALID,0,VALID,23.4523,VALID,351,VALID,0.00117188,
2008-05-14, 03:36:04,VALID,1004.13,VALID,0,VALID,94.1404,VALID,0,VALID,23.4134,VALID,351,VALID,0,
2008-05-14, 03:37:04,VALID,1004.16,VALID,0,VALID,94.2243,VALID,0,VALID,23.4134,VALID,351,VALID,0,
2008-05-14, 03:38:04,VALID,1004.17,VALID,0,VALID,94.2396,VALID,0,VALID,23.3939,VALID,351,VALID,0,
2008-05-14, 03:39:04,VALID,1004.19,VALID,0,VALID,94.209,VALID,0.100563,VALID,23.355,VALID,351,VALID,0,
2008-05-14, 03:40:04,VALID,1004.17,VALID,0,VALID,94.2777,VALID,0.100563,VALID,23.2948,VALID,351,VALID,0,
2008-05-14, 03:41:04,VALID,1004.19,VALID,0,VALID,94.3845,VALID,0,VALID,23.316,VALID,351,VALID,0,
2008-05-14, 03:42:04,VALID,1004.21,VALID,0,VALID,94.5295,VALID,0,VALID,23.2966,VALID,351,VALID,0.158203,
2008-05-14, 03:43:04,VALID,1004.23,VALID,0,VALID,94.4379,VALID,0.100563,VALID,23.2559,VALID,351,VALID,0.314063,
2008-05-14, 03:44:04,VALID,1004.21,VALID,0,VALID,94.4379,VALID,0,VALID,23.2187,VALID,351,VALID,0.425781,